This is the latest recevied weather packets stored in our database for station/object SP6PGH-13. If no packets are shown the sender has not sent any weather packets the latest 10 day(s).
| Time | Temp. | Humidity | Pressure | Rain* | Wind** | Luminosity | Snow |
|---|---|---|---|---|---|---|---|
| 1788536484 | 24.44° C | 62% | 994.2 hPa | - | - | 77 W/m² | - |
| 1788535582 | 25° C | 62% | 994.4 hPa | - | - | 92 W/m² | - |
| 1788534681 | 25.56° C | 58% | 994.5 hPa | - | - | 201 W/m² | - |
| 1788533780 | 25.56° C | 58% | 994.8 hPa | - | - | 163 W/m² | - |
| 1788531978 | 25.56° C | 59% | 995.1 hPa | - | - | 153 W/m² | - |
| 1788531076 | 26.11° C | 57% | 995.3 hPa | - | - | 447 W/m² | - |
| 1788530176 | 25.56° C | 57% | 995.6 hPa | - | - | 263 W/m² | - |
| 1788528373 | 23.89° C | 62% | 996.1 hPa | - | - | 194 W/m² | - |
| 1788527472 | 23.89° C | 63% | 996.5 hPa | - | - | 130 W/m² | - |
| 1788526571 | 23.89° C | 63% | 996.7 hPa | - | - | 155 W/m² | - |
| 1788524770 | 22.22° C | 70% | 997.2 hPa | - | - | 67 W/m² | - |
| 1788523868 | 22.78° C | 69% | 997.4 hPa | - | - | 51 W/m² | - |
| 1788522968 | 23.33° C | 68% | 997.6 hPa | - | - | 163 W/m² | - |
| 1788522066 | 22.22° C | 71% | 997.9 hPa | - | - | 236 W/m² | - |
| 1788521165 | 22.22° C | 69% | 998 hPa | - | - | 46 W/m² | - |
| 1788518463 | 22.22° C | 68% | 998.6 hPa | - | - | 168 W/m² | - |
| 1788517561 | 21.67° C | 70% | 998.8 hPa | - | - | 158 W/m² | - |
| 1788516660 | 22.78° C | 64% | 998.8 hPa | - | - | 374 W/m² | - |
| 1788515759 | 23.33° C | 65% | 999.1 hPa | - | - | 248 W/m² | - |
| 1788514858 | 22.78° C | 64% | 999.2 hPa | - | - | 258 W/m² | - |
| 1788513956 | 22.22° C | 64% | 999.6 hPa | - | - | 229 W/m² | - |
| 1788513056 | 22.22° C | 64% | 999.8 hPa | - | - | 290 W/m² | - |
| 1788512154 | 22.78° C | 65% | 1000 hPa | - | - | 172 W/m² | - |
| 1788511253 | 22.22° C | 66% | 1000 hPa | - | - | 595 W/m² | - |
| 1788510352 | 21.67° C | 66% | 1000.4 hPa | - | - | 251 W/m² | - |
* Rain since midnight (hover to see other rain measurements)
** Current wind speed in m/s (hover to see current wind gust speed)